Miscellaneous Local Product
Issued by NWS Hastings, NE

Home | Current Version | Previous Version | Text Only | Print | Product List | Glossary Off
Versions: 1 2 3 4 5 6 7 8 9 10 11 12 13 14 15 16 17 18 19 20 21 22 23 24 25 26 27 28 29 30 31 32 33 34 35 36 37 38 39 40 41 42 43 44 45 46 47 48 49 50

000
AXUS43 KGID 150902
MISGRI

GID CWA HOURLY WEATHER ROUNDUP
NATIONAL WEATHER SERVICE HASTINGS NE
300 AM CST FRI DEC 15 2017

NOTE: "FAIR" INDICATES FEW OR NO CLOUDS BELOW 12,000 FEET WITH NO
SIGNIFICANT WEATHER AND/OR OBSTRUCTIONS TO VISIBILITY.

...SOUTH CENTRAL NEBRASKA...

CITY           SKY/WX    TMP DP  RH WIND       PRES   REMARKS
GRAND ISLAND   CLOUDY    25  21  85 W9        30.14F WCI  15
KEARNEY        CLEAR     29  24  82 W8        30.15F WCI  21
HASTINGS       CLEAR     23  19  85 W7        30.15F WCI  15
ORD            CLEAR     27  23  85 W13       30.10S WCI  16
YORK           CLOUDY    32  30  93 W9        30.15R WCI  24
AURORA         CLOUDY    28  23  82 W7        30.13F WCI  20
LEXINGTON      CLOUDY    20  17  88 W5        30.14F WCI  14
HOLDREGE       CLEAR     24  22  93 W6        30.15F WCI  17
HEBRON         CLOUDY    31  27  84 W3        30.17S

...NEBRASKA PANHANDLE...

CITY           SKY/WX    TMP DP  RH WIND       PRES   REMARKS
CHADRON        CLOUDY    16  13  88 SW5       30.06F WCI   9
ALLIANCE       CLOUDY     7   5  91 W6        30.07F WCI  -3
SCOTTSBLUFF    CLOUDY    10   7  87 NW6       30.10F WCI   0
SIDNEY         CLOUDY    14   8  77 W10       30.10F WCI   1

...WESTERN AND NORTH CENTRAL NEBRASKA...

CITY           SKY/WX    TMP DP  RH WIND       PRES   REMARKS
VALENTINE      CLOUDY    24  20  84 W9        30.05F WCI  14
AINSWORTH      CLOUDY    25  23  91 W9        30.06F WCI  16
ONEILL         PTCLDY    31  28  92 W9        30.07R WCI  22
BROKEN BOW     CLEAR     24  20  84 W6        30.11S WCI  17
IMPERIAL       CLOUDY    16  13  88 W10       30.15F WCI   4
NORTH PLATTE   CLOUDY    16  14  92 W5        30.14S WCI   9
MCCOOK         CLOUDY    18  16  92 W9        30.17F WCI   7

...EASTERN NEBRASKA...

CITY           SKY/WX    TMP DP  RH WIND       PRES   REMARKS
NORFOLK        CLOUDY    31  25  78 W9        30.07F WCI  23
SO SIOUX CITY  CLOUDY    31  26  82 SW3       30.06F
TEKAMAH        CLOUDY    31  24  75 SW5       30.09F WCI  26
COLUMBUS       CLOUDY    31  27  85 SW7       30.12F WCI  24
ALBION         CLOUDY    32  26  78 CALM      30.10F
OMAHA EPPLEY   CLOUDY    32  23  69 CALM      30.12F
OFFUTT AFB     CLOUDY    32  24  74 CALM      30.11F
MILLARD        CLOUDY    35  27  74 W5        30.12S WCI  31
LINCOLN        CLOUDY    33  27  78 W8        30.15S WCI  26
NEBRASKA CITY  CLOUDY    32  27  81 N9        30.13F WCI  25
BEATRICE       CLOUDY    30  28  92 W7        30.15S WCI  23
FALLS CITY     CLOUDY    36  27  69 NW10      30.14R WCI  28

...NORTHERN KANSAS...

CITY           SKY/WX    TMP DP  RH WIND       PRES   REMARKS
GOODLAND       CLOUDY    19  15  84 W12       30.17F WCI   7
HILL CITY      CLEAR     23  19  85 W7        30.21S WCI  15
NORTON         SUNNY     19  16  86 SW7       30.17F WCI  10
PHILLIPSBURG   PTCLDY    21  21 100 W5        30.21S WCI  15
SMITH CENTER   CLEAR     23  21  93 W3        30.20S
HAYS           MOCLDY    27  23  85 NW7       30.23S WCI  19
RUSSELL        CLEAR     25  24  96 W7        30.21S WCI  17
CONCORDIA      PTCLDY    27  25  92 NW8       30.19R WCI  19
SALINA         MOCLDY    33  29  85 NW10      30.21R WCI  25
TOPEKA         CLOUDY    38  34  85 W8        30.15S WCI  32



USA.gov is the U.S. government's official web portal to all federal, state and local government web resources and services.